DW1520 Weather Reports


time (UTC)temp
C
wind
direction
speed
KPH
gust
KPH
rain 1hr
cm
rain 24hr
cm
rain mn
cm
humidity
%
barometer
mb
20260905214506 25 19 3.2 12.9 0.00 0.00 0.00 80 1012.0
20260905214006 25 22 1.6 11.3 0.00 0.00 0.00 80 1011.9
20260905213506 25 46 4.8 11.3 0.00 0.00 0.00 80 1011.8
20260905213006 25 12 3.2 8.0 0.00 0.00 0.00 80 1011.9
20260905212506 25 336 3.2 4.8 0.00 0.00 0.00 80 1012.0
20260905212006 25 0 1.6 4.8 0.00 0.00 0.00 80 1012.2
20260905211006 25 352 3.2 8.0 0.00 0.00 0.00 79 1012.1
20260905210506 26 352 3.2 4.8 0.00 0.00 0.00 79 1012.1
20260905210006 26 343 3.2 4.8 0.00 0.00 0.00 79 1012.1
20260905205006 26 19 1.6 9.7 0.00 0.00 0.00 79 1012.3
20260905204506 26 76 3.2 4.8 0.00 0.00 0.00 79 1012.4
20260905204006 26 15 1.6 4.8 0.00 0.00 0.00 79 1012.5
20260905203006 26 336 3.2 8.0 0.00 0.00 0.00 79 1012.6
20260905202506 26 351 3.2 4.8 0.00 0.00 0.00 79 1012.6
20260905202006 26 0 3.2 4.8 0.00 0.00 0.00 79 1012.6
20260905201006 26 232 1.6 4.8 0.00 0.00 0.00 78 1012.9
20260905200006 26 193 0.0 4.8 0.00 0.00 0.00 79 1013.1
20260905195506 26 193 1.6 3.2 0.00 0.00 0.00 80 1013.2
20260905195007 26 194 0.0 3.2 0.00 0.00 0.00 80 1013.2
20260905194006 26 166 1.6 4.8 0.00 0.00 0.00 80 1013.3
20260905193506 26 116 1.6 4.8 0.00 0.00 0.00 80 1013.4
20260905193006 26 116 1.6 3.2 0.00 0.00 0.00 80 1013.5
20260905192506 26 116 1.6 4.8 0.00 0.00 0.00 79 1013.4
20260905192006 26 115 1.6 3.2 0.00 0.00 0.00 80 1013.3
20260905191506 26 121 0.0 3.2 0.00 0.00 0.00 79 1013.4
20260905191006 26 121 1.6 4.8 0.00 0.00 0.00 79 1013.5
20260905190506 26 121 1.6 8.0 0.00 0.00 0.00 79 1013.5
20260905190006 26 161 1.6 8.0 0.00 0.00 0.00 80 1013.5
20260905185506 26 111 1.6 4.8 0.00 0.00 0.00 81 1013.4
20260905185007 26 110 0.0 4.8 0.00 0.00 0.00 81 1013.4
20260905184006 25 303 1.6 4.8 0.00 0.00 0.00 81 1013.6
20260905183506 25 344 1.6 4.8 0.00 0.00 0.00 83 1013.5
20260905183006 25 34 3.2 4.8 0.00 0.00 0.00 82 1013.4
20260905182506 25 5 0.0 4.8 0.00 0.00 0.00 84 1013.6
20260905182006 25 5 0.0 1.6 0.00 0.00 0.00 84 1013.8
20260905181506 24 5 1.6 3.2 0.00 0.00 0.00 85 1013.9
20260905181006 24 15 0.0 3.2 0.00 0.00 0.00 85 1013.9
20260905180506 24 31 0.0 3.2 0.00 0.00 0.00 85 1014.0
20260905180006 24 31 0.0 0.0 0.00 0.00 0.00 85 1014.0
20260905175506 24 31 0.0 0.0 0.00 0.00 0.00 85 1014.0
20260905174506 24 355 0.0 1.6 0.00 0.00 0.00 86 1014.2
20260905174006 24 355 0.0 1.6 0.00 0.00 0.00 87 1014.3
20260905173506 23 355 0.0 3.2 0.00 0.00 0.00 87 1014.2
20260905173007 23 355 0.0 3.2 0.00 0.00 0.00 87 1014.2
20260905172505 23 50 1.6 4.8 0.00 0.00 0.00 87 1014.3
20260905172006 23 56 1.6 3.2 0.00 0.00 0.00 87 1014.3
20260905171506 23 325 0.0 3.2 0.00 0.00 0.00 87 1014.4
20260905171006 23 325 0.0 1.6 0.00 0.00 0.00 87 1014.4
20260905170506 23 325 1.6 3.2 0.00 0.00 0.00 88 1014.4
20260905165505 23 325 1.6 3.2 0.00 0.00 0.00 88 1014.5
20260905165006 23 324 1.6 4.8 0.00 0.00 0.00 88 1014.4
20260905164506 23 332 1.6 4.8 0.00 0.00 0.00 88 1014.2
20260905164006 23 350 1.6 4.8 0.00 0.00 0.00 88 1014.1
20260905163506 23 333 1.6 4.8 0.00 0.00 0.00 88 1014.0
20260905162506 23 29 1.6 4.8 0.00 0.00 0.00 89 1014.0
20260905162006 23 29 1.6 4.8 0.00 0.00 0.00 88 1014.0
20260905161006 23 32 3.2 4.8 0.00 0.00 0.00 88 1014.0
20260905160506 23 53 3.2 4.8 0.00 0.00 0.00 89 1014.0
20260905160006 23 144 0.0 3.2 0.00 0.00 0.00 89 1014.0
20260905155506 23 106 1.6 3.2 0.00 0.00 0.00 89 1014.0
20260905155006 22 21 1.6 4.8 0.00 0.00 0.00 90 1013.9
20260905154506 22 331 1.6 4.8 0.00 0.00 0.00 90 1013.8
20260905153506 22 38 1.6 4.8 0.00 0.00 0.00 90 1013.8
20260905153006 22 33 3.2 4.8 0.00 0.00 0.00 91 1013.7
20260905152006 22 13 1.6 4.8 0.00 0.00 0.00 91 1013.7
20260905151506 22 12 0.0 4.8 0.00 0.00 0.00 92 1013.8
20260905151006 22 1 1.6 4.8 0.00 0.00 0.00 92 1013.8
20260905150006 22 5 0.0 4.8 0.00 0.00 0.00 92 1013.5
20260905145506 22 11 1.6 4.8 0.00 0.00 0.00 92 1013.5
20260905145006 21 355 1.6 4.8 0.00 0.00 0.00 92 1013.5
20260905144506 21 48 1.6 4.8 0.00 0.00 0.00 92 1013.5
20260905144006 21 13 0.0 4.8 0.00 0.00 0.00 92 1013.5
20260905143506 21 26 1.6 4.8 0.00 0.00 0.00 92 1013.5
20260905142506 21 5 0.0 3.2 0.00 0.00 0.00 92 1013.4
20260905142006 21 5 1.6 3.2 0.00 0.00 0.00 93 1013.4
20260905141506 21 5 0.0 4.8 0.00 0.00 0.00 93 1013.3
20260905141006 21 33 0.0 3.2 0.00 0.00 0.00 93 1013.3
20260905140506 21 12 0.0 4.8 0.00 0.00 0.00 93 1013.3
20260905140005 21 12 0.0 3.2 0.00 0.00 0.00 92 1013.2
20260905135006 21 16 1.6 3.2 0.00 0.00 0.00 92 1013.1
20260905134506 21 16 1.6 4.8 0.00 0.00 0.00 93 1013.1
20260905134006 21 0 1.6 4.8 0.00 0.00 0.00 93 1013.1
20260905133506 21 44 1.6 4.8 0.00 0.00 0.00 93 1013.0
20260905133006 21 44 1.6 4.8 0.00 0.00 0.00 93 1012.9
20260905132506 21 37 1.6 4.8 0.00 0.00 0.00 93 1012.9
20260905132006 21 342 0.0 3.2 0.00 0.00 0.00 92 1012.8
20260905131506 21 57 1.6 4.8 0.00 0.00 0.00 92 1012.6
20260905131006 21 17 1.6 4.8 0.00 0.00 0.00 92 1012.5
20260905130506 21 11 1.6 3.2 0.00 0.00 0.00 92 1012.3
20260905130006 21 25 1.6 4.8 0.00 0.00 0.00 92 1012.2
20260905125510 21 0 1.6 4.8 0.00 0.00 0.00 92 1012.1
20260905125006 21 9 3.2 4.8 0.00 0.00 0.00 93 1011.9
20260905124506 21 7 3.2 4.8 0.00 0.00 0.00 93 1011.8
20260905124006 21 34 3.2 8.0 0.00 0.00 0.00 93 1011.7
20260905123505 21 345 1.6 4.8 0.00 0.00 0.00 92 1011.6
20260905123006 21 34 1.6 3.2 0.00 0.00 0.00 92 1011.6
20260905122006 21 358 1.6 4.8 0.00 0.00 0.00 93 1011.7
20260905121506 21 351 1.6 3.2 0.00 0.00 0.00 93 1011.6
20260905120506 21 351 1.6 4.8 0.00 0.00 0.00 93 1011.6
20260905120006 21 355 1.6 4.8 0.00 0.00 0.00 93 1011.6
20260905115505 21 355 1.6 4.8 0.00 0.00 0.00 93 1011.7
20260905115006 21 355 0.0 3.2 0.00 0.00 0.00 93 1011.7
20260905114506 21 355 1.6 4.8 0.00 0.00 0.00 92 1011.6
20260905114006 21 355 0.0 1.6 0.00 0.00 0.00 93 1011.7
20260905113508 21 355 0.0 3.2 0.00 0.00 0.00 93 1011.6
20260905113006 21 355 1.6 4.8 0.00 0.00 0.00 93 1011.5
20260905112506 21 9 1.6 3.2 0.00 0.00 0.00 93 1011.5
20260905112006 21 5 1.6 4.8 0.00 0.00 0.00 93 1011.4
20260905111506 21 16 1.6 3.2 0.00 0.00 0.00 92 1011.4
20260905111006 21 26 1.6 4.8 0.00 0.00 0.00 92 1011.4
20260905110506 21 50 0.0 3.2 0.00 0.00 0.00 92 1011.4
20260905110005 21 50 0.0 1.6 0.00 0.00 0.00 93 1011.5
20260905105506 21 50 1.6 3.2 0.00 0.00 0.00 93 1011.4
20260905105006 21 355 0.0 3.2 0.00 0.00 0.00 93 1011.4
20260905104006 21 355 0.0 1.6 0.00 0.00 0.00 93 1011.4
20260905103506 21 355 0.0 1.6 0.00 0.00 0.00 93 1011.4
20260905103006 21 355 1.6 4.8 0.00 0.00 0.00 93 1011.4
20260905102506 21 355 1.6 4.8 0.00 0.00 0.00 93 1011.3
20260905102006 21 79 0.0 1.6 0.00 0.00 0.00 92 1011.5
20260905101006 21 79 0.0 3.2 0.00 0.00 0.00 92 1011.1
20260905100506 21 25 0.0 3.2 0.00 0.00 0.00 92 1010.8
20260905100006 21 340 1.6 4.8 0.00 0.00 0.00 92 1010.8
20260905095506 21 22 0.0 4.8 0.00 0.00 0.00 92 1010.7
20260905095006 21 22 1.6 3.2 0.00 0.00 0.00 92 1010.7
20260905094505 21 348 1.6 3.2 0.00 0.00 0.00 92 1010.6
20260905094006 21 5 1.6 3.2 0.00 0.00 0.00 92 1010.6
20260905093505 21 5 1.6 3.2 0.00 0.00 0.00 92 1010.7
20260905093006 21 5 1.6 4.8 0.00 0.00 0.00 92 1010.6
20260905092506 21 334 1.6 4.8 0.00 0.00 0.00 92 1010.6
20260905091506 21 327 0.0 3.2 0.00 0.00 0.00 92 1010.8
20260905090506 21 6 1.6 4.8 0.00 0.00 0.00 92 1010.9
20260905090006 21 5 0.0 3.2 0.00 0.00 0.00 92 1010.9
20260905085506 21 5 0.0 1.6 0.00 0.00 0.00 92 1011.0
20260905085006 21 5 0.0 4.8 0.00 0.00 0.00 92 1011.0
20260905084506 20 5 1.6 3.2 0.00 0.00 0.00 92 1011.0
20260905084006 20 5 0.0 0.0 0.00 0.00 0.00 92 1011.1
20260905083506 20 5 0.0 0.0 0.00 0.00 0.00 92 1011.2
20260905082506 21 5 0.0 0.0 0.00 0.00 0.00 92 1011.2
20260905082006 21 5 0.0 3.2 0.00 0.00 0.00 92 1011.0
20260905081505 21 5 0.0 1.6 0.00 0.00 0.00 91 1011.0
20260905081006 21 5 0.0 0.0 0.00 0.00 0.00 91 1011.1
20260905080505 21 5 0.0 1.6 0.00 0.00 0.00 91 1011.1
20260905080006 21 5 0.0 0.0 0.00 0.00 0.00 91 1011.2
20260905075505 21 5 0.0 1.6 0.00 0.00 0.00 91 1011.1
20260905075006 21 5 0.0 0.0 0.00 0.00 0.00 91 1011.1
20260905074506 21 5 0.0 0.0 0.00 0.00 0.00 91 1011.1
20260905073505 21 5 0.0 1.6 0.00 0.00 0.00 91 1011.0
20260905073006 21 5 0.0 1.6 0.00 0.00 0.00 91 1011.0
20260905072505 21 5 0.0 1.6 0.00 0.00 0.00 91 1011.1
20260905072006 21 5 0.0 1.6 0.00 0.00 0.00 91 1011.0
20260905071506 21 5 0.0 0.0 0.00 0.00 0.00 91 1010.9
20260905070506 21 5 0.0 0.0 0.00 0.00 0.00 91 1010.8
20260905070005 22 5 0.0 0.0 0.00 0.00 0.00 91 1010.9
20260905065006 22 5 0.0 0.0 0.00 0.00 0.00 91 1010.8
20260905064505 22 5 0.0 1.6 0.00 0.00 0.00 91 1010.9
20260905063505 22 5 0.0 1.6 0.00 0.00 0.00 90 1010.8
20260905063006 22 5 0.0 0.0 0.00 0.00 0.00 90 1010.9
20260905062505 22 5 0.0 1.6 0.00 0.00 0.00 90 1010.7
20260905062006 22 5 0.0 1.6 0.00 0.00 0.00 90 1010.7
20260905061506 22 5 0.0 0.0 0.00 0.00 0.00 90 1010.8
20260905060505 22 5 0.0 0.0 0.00 0.00 0.00 90 1010.6
20260905060005 22 5 0.0 1.6 0.00 0.00 0.00 90 1010.7
20260905055505 22 5 0.0 1.6 0.00 0.00 0.00 90 1010.7
20260905055006 22 5 0.0 1.6 0.00 0.00 0.00 90 1010.7
20260905054505 23 5 0.0 1.6 0.00 0.00 0.00 90 1010.6
20260905053006 23 5 0.0 1.6 0.00 0.00 0.00 90 1010.5
20260905052506 23 5 0.0 1.6 0.00 0.00 0.00 90 1010.4
20260905052005 23 5 0.0 3.2 0.00 0.00 0.00 90 1010.3
20260905051506 23 5 0.0 0.0 0.00 0.00 0.00 90 1010.2
20260905051006 23 5 0.0 0.0 0.00 0.00 0.00 90 1010.2
20260905050505 23 5 0.0 0.0 0.00 0.00 0.00 90 1010.2
20260905050006 23 5 0.0 0.0 0.00 0.00 0.00 90 1010.2
20260905045506 23 5 0.0 0.0 0.00 0.00 0.00 90 1010.1
20260905045006 23 5 0.0 0.0 0.00 0.00 0.00 90 1010.1
20260905044505 23 5 0.0 0.0 0.00 0.00 0.00 90 1010.2
20260905044006 24 5 0.0 0.0 0.00 0.00 0.00 90 1010.2
20260905043506 24 5 0.0 0.0 0.00 0.00 0.00 90 1010.1
20260905042506 24 5 0.0 0.0 0.00 0.00 0.00 89 1010.2
20260905042006 24 5 0.0 0.0 0.00 0.00 0.00 89 1010.2
20260905041506 24 5 0.0 0.0 0.00 0.00 0.00 89 1010.2
20260905041006 25 5 0.0 0.0 0.00 0.00 0.00 89 1010.2
20260905040506 25 5 0.0 0.0 0.00 0.00 0.00 89 1010.1
20260905035506 25 5 0.0 0.0 0.00 0.00 0.00 88 1010.1
20260905034506 25 5 0.0 0.0 0.00 0.00 0.00 88 1010.2
20260905033506 25 5 0.0 1.6 0.00 0.00 0.00 88 1010.1
20260905032506 26 5 0.0 1.6 0.00 0.00 0.00 87 1010.1
20260905031506 26 5 0.0 1.6 0.00 0.00 0.00 87 1010.1
20260905031006 26 5 0.0 3.2 0.00 0.00 0.00 87 1010.1
20260905030005 26 11 1.6 3.2 0.00 0.00 0.00 86 1010.1
20260905025506 26 11 1.6 4.8 0.00 0.00 0.00 86 1010.2
20260905024506 26 345 0.0 3.2 0.00 0.00 0.00 87 1010.2
20260905024006 26 344 1.6 4.8 0.00 0.00 0.00 87 1010.2
20260905023505 26 344 0.0 3.2 0.00 0.00 0.00 87 1010.0
20260905023005 27 344 1.6 4.8 0.00 0.00 0.00 87 1010.0
20260905022506 27 344 1.6 4.8 0.00 0.00 0.00 87 1009.9
20260905022006 27 140 1.6 4.8 0.00 0.00 0.00 87 1009.8
20260905021505 27 155 1.6 3.2 0.00 0.00 0.00 87 1009.8
20260905021006 27 155 1.6 4.8 0.00 0.00 0.00 86 1009.7
20260905020506 27 155 1.6 3.2 0.00 0.00 0.00 86 1009.6
20260905020006 27 155 0.0 1.6 0.00 0.00 0.00 86 1009.6
20260905015505 27 155 0.0 3.2 0.00 0.00 0.00 86 1009.4
20260905015006 27 155 0.0 3.2 0.00 0.00 0.00 85 1009.3
20260905014505 27 155 0.0 1.6 0.00 0.00 0.00 85 1009.3
20260905014006 27 155 0.0 0.0 0.00 0.00 0.00 84 1009.3
20260905013506 27 155 0.0 1.6 0.00 0.00 0.00 84 1009.2
20260905013006 28 155 0.0 3.2 0.00 0.00 0.00 84 1009.2
20260905012506 28 155 0.0 0.0 0.00 0.00 0.00 83 1009.0
20260905012006 28 155 0.0 0.0 0.00 0.00 0.00 83 1009.0
20260905011505 28 155 0.0 0.0 0.00 0.00 0.00 82 1009.0
20260905011006 28 155 0.0 1.6 0.00 0.00 0.00 82 1008.8
20260905010506 28 155 0.0 0.0 0.00 0.00 0.00 82 1008.8
20260905010005 28 155 0.0 0.0 0.00 0.00 0.00 81 1008.7
20260905005506 29 155 0.0 1.6 0.00 0.00 0.00 81 1008.7
20260905005005 29 155 0.0 3.2 0.00 0.00 0.00 80 1008.6
20260905004006 29 155 1.6 3.2 0.00 0.00 0.00 80 1008.6
20260905003506 29 155 0.0 1.6 0.00 0.00 0.00 80 1008.6
20260905003006 29 155 1.6 3.2 0.00 0.00 0.00 79 1008.5
20260905002505 29 155 0.0 1.6 0.00 0.00 0.00 78 1008.5
20260905002006 30 155 0.0 3.2 0.00 0.00 0.00 78 1008.3
20260905001505 30 155 0.0 3.2 0.00 0.00 0.00 77 1008.3
20260905001006 30 155 1.6 4.8 0.00 0.00 0.00 76 1008.2
20260905000505 30 155 1.6 3.2 0.00 0.00 0.00 76 1008.2
20260904235505 30 155 3.2 4.8 0.00 0.00 0.00 75 1008.2
20260904234505 30 155 3.2 4.8 0.00 0.00 0.00 74 1008.2
20260904234006 30 155 4.8 11.3 0.00 0.00 0.00 73 1008.2
20260904233506 30 165 3.2 9.7 0.00 0.00 0.00 73 1008.2
20260904233006 30 165 3.2 9.7 0.00 0.00 0.00 73 1008.2
20260904232006 31 162 3.2 4.8 0.00 0.00 0.00 72 1008.2
20260904231506 31 162 1.6 3.2 0.00 0.00 0.00 73 1008.1
20260904231006 31 163 3.2 8.0 0.00 0.00 0.00 72 1008.1
20260904230506 31 163 3.2 4.8 0.00 0.00 0.00 72 1008.2
20260904230005 31 163 3.2 8.0 0.00 0.00 0.00 72 1008.1
20260904225505 31 163 1.6 8.0 0.00 0.00 0.00 72 1008.0
20260904224505 31 163 1.6 4.8 0.00 0.00 0.00 71 1008.0
20260904224006 31 163 1.6 3.2 0.00 0.00 0.00 70 1008.0
20260904223005 31 163 0.0 3.2 0.00 0.00 0.00 69 1007.8
20260904222006 31 163 1.6 8.0 0.00 0.00 0.00 70 1007.7
20260904221505 31 163 4.8 8.0 0.00 0.00 0.00 69 1007.8
20260904221006 31 163 3.2 8.0 0.00 0.00 0.00 69 1007.7
20260904220506 31 163 3.2 8.0 0.00 0.00 0.00 69 1007.7
20260904220006 31 163 3.2 8.0 0.00 0.00 0.00 69 1007.6
20260904215505 31 163 4.8 8.0 0.00 0.00 0.00 69 1007.7
20260904215006 31 163 3.2 8.0 0.00 0.00 0.00 70 1007.6